2022/11/28 11:30:00,24.9,23.3
2022/11/28 11:40:00,25.3,25.1
2022/11/28 11:50:00,22.6,21.7
2022/11/28 12:00:00, 0.0,23.7
2022/11/28 12:10:00, 0.0,21.9
2022/11/28 12:20:00, 0.0,21.3
2022/11/28 12:30:00, 0.0,21.3
2022/11/28 12:40:00, 0.0,21.3
2022/11/28 12:50:00, 0.0,21.6
2022/11/28 13:00:00, 0.0,21.8
2022/11/28 13:10:00, 0.0,21.6
2022/11/28 13:20:00, 0.0,22.5
2022/11/28 13:30:00, 0.0,21.4
2022/11/28 13:40:00, 0.0,21.5
2022/11/28 13:50:00, 0.0,21.1
2022/11/28 14:00:00, 0.0,20.9
2022/11/28 14:10:00, 0.0,21.2
2022/11/28 14:20:00, 0.1,20.4
2022/11/28 14:30:00, 0.2,19.7
2022/11/28 14:40:00, 0.2,18.9
2022/11/28 14:50:00, 0.2,18.4
2022/11/28 15:00:00, 0.2,18.2
2022/11/28 15:10:00, 0.2,17.9
2022/11/28 15:20:00, 0.3,17.7
2022/11/28 15:30:00, 0.3,17.3
2022/11/28 15:40:00, 0.2,17.5
2022/11/28 15:50:00, 0.2,17.3
2022/11/28 16:00:00, 0.2,17.2
2022/11/28 16:10:00, 0.3,16.8
2022/11/28 16:20:00, 0.3,16.7
2022/11/28 16:30:00, 0.3,16.8
2022/11/28 16:40:00, 0.3,16.8
2022/11/28 16:50:00, 0.3,16.6
2022/11/28 17:00:00, 0.3,16.1
2022/11/28 17:10:00, 0.3,15.0
2022/11/28 17:20:00, 0.3,13.7
2022/11/28 17:30:00, 0.3,14.0
2022/11/28 17:40:00, 0.3,14.8
2022/11/28 17:50:00, 0.3,15.0
2022/11/28 18:00:00, 0.3,14.8
2022/11/28 18:10:00, 0.3,14.5
2022/11/28 18:20:00, 0.3,14.5
2022/11/28 18:30:00, 0.3,14.5
2022/11/28 18:40:00, 0.3,14.8
2022/11/28 18:50:00, 0.3,14.7
2022/11/28 19:00:00, 0.3,15.1
2022/11/28 19:10:00, 0.3,14.5
2022/11/28 19:20:00, 0.0,15.0
2022/11/28 19:30:00, 0.0,15.2
2022/11/28 19:40:00, 0.0,15.1
2022/11/28 19:50:00, 0.0,14.9
2022/11/28 20:00:00, 0.0,14.8
2022/11/28 20:10:00, 0.0,14.9
2022/11/28 20:20:00, 0.0,14.8
2022/11/28 20:30:00, 0.0,14.8
2022/11/28 20:40:00, 0.0,15.1
2022/11/28 20:50:00, 0.0,15.0
2022/11/28 21:00:00, 0.0,14.9
2022/11/28 21:10:00, 0.0,14.9
2022/11/28 21:20:00, 0.0,14.9
2022/11/28 21:30:00, 0.0,14.9
2022/11/28 21:40:00, 0.0,15.0
2022/11/28 21:50:00, 0.0,14.9
2022/11/28 22:00:00, 0.0,15.1
2022/11/28 22:10:00, 0.0,15.0
2022/11/28 22:20:00, 0.0,15.0
2022/11/28 22:30:00, 0.0,15.0
2022/11/28 22:40:00, 0.0,15.2
2022/11/28 22:50:00, 0.0,15.3
2022/11/28 23:00:00, 0.0,15.4
2022/11/28 23:10:00, 0.0,15.5
2022/11/28 23:20:00, 0.0,15.9
2022/11/28 23:30:00, 0.0,15.8
2022/11/28 23:40:00, 0.0,15.9
2022/11/28 23:50:00, 0.0,16.3
